{"data":{"norad_id":61695,"intl_designator":"2024-195J","name":"STARLINK-11327 [DTC]","alt_names":[],"object_type":"PAYLOAD","status":"ACTIVE","operator":null,"country":"US","launch_date":"2024-10-30","launch_site_code":"AFWTR","launch_vehicle":null,"mission":null,"orbit_class":"UNKNOWN","rcs_meters":null,"size_class":null,"mass_kg":null,"dimensions":null,"purposes":["comms"],"wikipedia_slug":null,"has_3d_model":false,"image_url":null,"decayed_at":null,"tle_current":{"epoch":"2026-05-25T00:29:37.557312Z","epoch_age_seconds":80084,"freshness":"FRESH","line1":"1 61695U 24195J   26145.02057358  .00001891  00000+0  20467-4 0  9997","line2":"2 61695  53.1592   9.8734 0000926  81.4973 278.6150 15.69703907 91022","mean_motion":15.69703907,"eccentricity":9.26e-5,"inclination_deg":53.1592,"raan_deg":9.8734,"arg_perigee_deg":81.4973,"mean_anomaly_deg":278.615,"bstar":2.0467e-5,"rev_number":9102,"period_min":91.737046303982,"perigee_km":359.12025851205,"apogee_km":360.36811410776,"semimajor_km":6737.8811863099,"source":"CELESTRAK","updated_at":"2026-05-25T13:38:19.441012Z"}}}